TimeEET,TemperatureF,Dew PointF,Humidity,Sea Level PressureIn,VisibilityMPH,Wind Direction,Wind SpeedMPH,Gust SpeedMPH,PrecipitationIn,Events,Conditions,WindDirDegrees,DateUTC
12:50 AM,19.4,17.6,93,30.18,0.2,Calm,Calm,-,N/A,Fog,Light Freezing Fog,0,2012-12-12 22:50:00
1:50 AM,19.4,19.4,100,30.15,0.2,Calm,Calm,-,N/A,Fog,Light Freezing Fog,0,2012-12-12 23:50:00
2:00 AM,19,19,100,,0,Calm,Calm,,,Fog,Heavy Fog,,2012-12-13 00:00:00
2:50 AM,21.2,19.4,93,30.15,0.2,Calm,Calm,-,N/A,Fog,Light Freezing Fog,0,2012-12-13 00:50:00
3:50 AM,21.2,19.4,93,30.12,0.2,Calm,Calm,-,N/A,Fog,Light Freezing Fog,0,2012-12-13 01:50:00
5:50 AM,21.2,19.4,93,30.12,0.2,Calm,Calm,-,N/A,Fog,Light Freezing Fog,0,2012-12-13 03:50:00
6:50 AM,21.2,21.2,100,30.12,0.2,Calm,Calm,-,N/A,Fog,Light Freezing Fog,0,2012-12-13 04:50:00
7:50 AM,21.2,21.2,100,30.12,0.7,Calm,Calm,-,N/A,,Overcast,0,2012-12-13 05:50:00
8:00 AM,22,22,97,,1,Calm,Calm,,,Fog,Light Fog,,2012-12-13 06:00:00
8:50 AM,21.2,21.2,100,30.12,1.9,Calm,Calm,-,N/A,,Overcast,0,2012-12-13 06:50:00
9:50 AM,21.2,21.2,100,30.12,1.9,Calm,Calm,-,N/A,,Overcast,0,2012-12-13 07:50:00
10:50 AM,23.0,23.0,100,30.12,3.7,Calm,Calm,-,N/A,,Overcast,0,2012-12-13 08:50:00
11:50 AM,23.0,23.0,100,30.09,4.3,Calm,Calm,-,N/A,,Overcast,0,2012-12-13 09:50:00
12:50 PM,23.0,23.0,100,30.09,4.3,WSW,2.3,-,N/A,,Overcast,250,2012-12-13 10:50:00
1:50 PM,23.0,23.0,100,30.09,4.3,Variable,1.2,-,N/A,,Overcast,0,2012-12-13 11:50:00
2:00 PM,23,22,93,,6,SSE,1.2,,,,Mist,160,2012-12-13 12:00:00
2:50 PM,21.2,21.2,100,30.06,5.0,ESE,3.5,-,N/A,,Overcast,110,2012-12-13 12:50:00
3:50 PM,21.2,21.2,100,30.06,5.6,ESE,4.6,-,N/A,,Overcast,110,2012-12-13 13:50:00
4:50 PM,21.2,21.2,100,30.06,5.0,NNE,2.3,-,N/A,,Overcast,30,2012-12-13 14:50:00
5:50 PM,21.2,21.2,100,30.06,6.2,Calm,Calm,-,N/A,,Mostly Cloudy,0,2012-12-13 15:50:00
6:50 PM,21.2,21.2,100,30.06,6.2,North,1.2,-,N/A,,Mostly Cloudy,350,2012-12-13 16:50:00
7:50 PM,21.2,21.2,100,30.06,6.2,NNW,1.2,-,N/A,,Mostly Cloudy,340,2012-12-13 17:50:00
8:00 PM,23,22,92,,6,NNW,1.2,,,,Mostly Cloudy,340,2012-12-13 18:00:00
8:50 PM,21.2,21.2,100,30.09,6.2,NW,3.5,-,N/A,,Mostly Cloudy,320,2012-12-13 18:50:00
9:50 PM,21.2,21.2,100,30.09,6.2,NNW,1.2,-,N/A,,Mostly Cloudy,340,2012-12-13 19:50:00
10:50 PM,21.2,21.2,100,30.09,6.2,Calm,Calm,-,N/A,,Mostly Cloudy,0,2012-12-13 20:50:00
11:50 PM,21.2,19.4,93,30.09,6.2,WSW,2.3,-,N/A,,Mostly Cloudy,240,2012-12-13 21:50:00